Volver al catálogo

OPS 4682 DEB

ActivoPO
NORAD 38450·DEBRIS·🇺🇸 United States

Lanzado Apr 3, 1965 desde Vandenberg Space Force Base

Loading…

Próximos Pases (próximas 24 horas)

TLE

ActualizadoSource: Space-Track

Época: Sep 14, 2026, 06:40 UTC

1 38450U 65027FF  26257.27822397 -.00000246  00000-0 -83438-3 0  9995
2 38450  90.2451   9.2990 0025368  16.1220 344.0704 13.00509775643695

Sigue OPS 4682 DEB en tiempo real con AllMySat

Download on the App Store